Gainesville, GA

3:55 PM EDT on July 23, 2016 (GMT -0400)
Gilmer Memorial

Weather History for KGVL - April, 2012

Change the Weather History Date:

Saturday, April 14, 2012

  Actual Average Record
Temperature  
Mean Temperature 60 °F 60 °F  
Max Temperature 75 °F 71 °F 86 °F (1981)
Min Temperature 48 °F 49 °F 27 °F (1950)
Degree Days  
Heating Degree Days 4 6  
Month to date heating degree days 105  
Since 1 July heating degree days 2957  
Cooling Degree Days 0 1  
Month to date cooling degree days 12  
Year to date cooling degree days 17  
Growing Degree Days 10 (Base 50)    
Moisture  
Dew Point 41 °F    
Average Humidity 48    
Maximum Humidity 77    
Minimum Humidity 30    
Precipitation  
Precipitation 0.00 in 0.11 in 2.71 in (1979)
Month to date precipitation 1.65  
Year to date precipitation 16.97  
Sea Level Pressure  
Sea Level Pressure 30.25 in    
Wind  
Wind Speed 3 mph (SE)    
Max Wind Speed 10 mph    
Max Gust Speed -    
Visibility 10 miles    
Events      
T = Trace of Precipitation, MM = Missing Value Source: NWS Daily Summary

Daily Weather History Graph

Daily Weather History Graph

Search for Another Location

Airport or City:

Trip Planner

Search our weather history database for the weather conditions in past years. The results will help you decide how hot, cold, wet, or windy it might be!

Date:

Astronomy

Apr. 14, 2012 Rise Set
Actual Time 7:04 AM EDT 8:06 PM EDT
Civil Twilight 6:39 AM EDT 8:32 PM EDT
Nautical Twilight 6:08 AM EDT 9:03 PM EDT
Astronomical Twilight 5:36 AM EDT 9:34 PM EDT
Moon 3:10 AM EDT (4/14) 2:14 PM EDT (4/14)
Length of Visible Light 13h 53m
Length of Day
13h 01m
Last Quarter, 37% of the Moon is Illuminated
Apr 14
Last Quarter
Apr 21
New
Apr 29
First Quarter
May 5
Full
May 12
Last Quarter

Hourly Weather History & Observations

Time (EDT) Temp. Dew Point Humidity Pressure Visibility Wind Dir Wind Speed Gust Speed Precip Events Conditions
12:53 AM 57.0 °F 36.0 °F 45% 30.25 in 10.0 mi Calm Calm - N/A   Clear
1:53 AM 55.0 °F 37.9 °F 53% 30.24 in 10.0 mi Calm Calm - N/A   Clear
2:53 AM 52.0 °F 39.0 °F 61% 30.25 in 10.0 mi Calm Calm - N/A   Clear
3:53 AM 54.0 °F 37.9 °F 55% 30.24 in 10.0 mi SE 4.6 mph - N/A   Clear
4:53 AM 52.0 °F 39.9 °F 63% 30.26 in 10.0 mi ESE 3.5 mph - N/A   Clear
5:53 AM 48.9 °F 39.9 °F 71% 30.29 in 10.0 mi North 3.5 mph - N/A   Clear
6:53 AM 48.0 °F 41.0 °F 77% 30.30 in 10.0 mi Calm Calm - N/A   Clear
7:53 AM 50.0 °F 43.0 °F 77% 30.30 in 10.0 mi Calm Calm - N/A   Clear
8:53 AM 55.9 °F 44.1 °F 64% 30.32 in 10.0 mi NNE 3.5 mph - N/A   Clear
9:53 AM 60.1 °F 41.0 °F 49% 30.33 in 10.0 mi Variable 3.5 mph - N/A   Clear
10:53 AM 63.0 °F 41.0 °F 45% 30.32 in 10.0 mi South 10.4 mph - N/A   Clear
11:53 AM 66.9 °F 43.0 °F 42% 30.32 in 10.0 mi South 8.1 mph - N/A   Clear
12:53 PM 68.0 °F 42.1 °F 39% 30.30 in 10.0 mi SE 6.9 mph - N/A   Clear
1:53 PM 70.0 °F 39.9 °F 33% 30.27 in 10.0 mi SSE 9.2 mph - N/A   Clear
2:53 PM 72.0 °F 41.0 °F 33% 30.24 in 10.0 mi SSW 8.1 mph - N/A   Clear
3:53 PM 73.9 °F 42.1 °F 32% 30.21 in 10.0 mi SSE 6.9 mph - N/A   Clear
4:53 PM 73.9 °F 41.0 °F 30% 30.19 in 10.0 mi East 6.9 mph - N/A   Clear
5:53 PM 73.9 °F 41.0 °F 30% 30.18 in 10.0 mi SE 5.8 mph - N/A   Clear
6:53 PM 73.0 °F 41.0 °F 31% 30.18 in 10.0 mi SSE 8.1 mph - N/A   Clear
7:53 PM 69.1 °F 42.1 °F 38% 30.19 in 10.0 mi Calm Calm - N/A   Clear
8:53 PM 66.0 °F 43.0 °F 43% 30.19 in 10.0 mi ESE 3.5 mph - N/A   Clear
9:53 PM 64.0 °F 42.1 °F 45% 30.20 in 10.0 mi SE 3.5 mph - N/A   Clear
10:53 PM 64.0 °F 41.0 °F 43% 30.20 in 10.0 mi SE 3.5 mph - N/A   Clear
11:53 PM 63.0 °F 39.9 °F 43% 30.20 in 10.0 mi SSE 4.6 mph - N/A   Clear